This is the latest recevied weather packets stored in our database for station/object DL4ABR-6. If no packets are shown the sender has not sent any weather packets the latest 10 day(s).
| Time | Temp. | Humidity | Pressure | Rain* | Wind** | Luminosity | Snow |
|---|---|---|---|---|---|---|---|
| 1777735970 | 27.22° C | 31% | 1011.8 hPa | 0 mm | - | - | - |
| 1777735155 | 27.78° C | 31% | 1012.1 hPa | 0 mm | - | - | - |
| 1777734365 | 27.22° C | 30% | 1012.2 hPa | 0 mm | - | - | - |
| 1777732854 | 27.78° C | 30% | 1012.5 hPa | 0 mm | - | - | - |
| 1777732135 | 27.78° C | 27% | 1012.5 hPa | 0 mm | - | - | - |
| 1777731335 | 28.89° C | 27% | 1012.5 hPa | 0 mm | - | - | - |
| 1777728905 | 28.33° C | 26% | 1013.1 hPa | 0 mm | - | - | - |
| 1777728155 | 28.33° C | 27% | 1013.1 hPa | 0 mm | - | - | - |
| 1777727340 | 27.78° C | 28% | 1013.3 hPa | 0 mm | - | - | - |
| 1777726570 | 27.78° C | 29% | 1013.3 hPa | 0 mm | - | - | - |
| 1777725010 | 27.22° C | 29% | 1013.8 hPa | 0 mm | - | - | - |
| 1777724174 | 27.22° C | 28% | 1013.9 hPa | 0 mm | - | - | - |
| 1777722520 | 26.67° C | 30% | 1014.5 hPa | 0 mm | - | - | - |
| 1777721704 | 26.11° C | 34% | 1014.5 hPa | 0 mm | - | - | - |
| 1777720966 | 26.11° C | 34% | 1014.9 hPa | 0 mm | - | - | - |
| 1777720104 | 26.11° C | 34% | 1015.2 hPa | 0 mm | - | - | - |
| 1777719304 | 25° C | 35% | 1015.3 hPa | 0 mm | - | - | - |
| 1777718565 | 25° C | 36% | 1015.4 hPa | 0 mm | - | - | - |
| 1777717723 | 24.44° C | 37% | 1015.4 hPa | 0 mm | - | - | - |
| 1777716840 | 25° C | 37% | 1015.7 hPa | 0 mm | - | - | - |
| 1777716060 | 23.89° C | 36% | 1016.1 hPa | 0 mm | - | - | - |
| 1777715260 | 24.44° C | 35% | 1016.1 hPa | 0 mm | - | - | - |
| 1777714450 | 24.44° C | 36% | 1016.1 hPa | 0 mm | - | - | - |
| 1777713730 | 24.44° C | 33% | 1016.3 hPa | 0 mm | - | - | - |
| 1777712865 | 23.89° C | 37% | 1016.4 hPa | 0 mm | - | - | - |
* Rain since midnight (hover to see other rain measurements)
** Current wind speed in m/s (hover to see current wind gust speed)